Regional Weather Roundup
Issued by NWS Newport/Morehead, NC

Current Version | Previous Version | Text Only | Print | Product List | Glossary On
Versions: 1 2 3 4 5 6 7 8 9 10 11 12 13 14 15 16 17 18 19 20 21 22 23 24 25 26 27 28 29 30 31 32 33 34 35 36 37 38 39 40 41 42 43 44 45 46 47 48 49 50
000
ASUS42 KMHX 170010
RWRMHX
WEATHER ROUNDUP FOR EASTERN NORTH CAROLINA
NATIONAL WEATHER SERVICE NEWPORT/MOREHEAD CITY NC
800 PM EDT WED APR 16 2014

NOTE: "FAIR" INDICATES FEW OR NO CLOUDS BELOW 12,000 FEET
WITH NO SIGNIFICANT WEATHER AND/OR OBSTRUCTIONS TO VISIBILITY

NCZ015>017-031-032-045>047-102-103-170100-
NORTH COAST

CITY           SKY/WX    TMP DP  RH WIND       PRES   REMARKS
EDENTON        CLEAR     44  32  63 NE6       30.43R
ELIZABETH CITY CLEAR     43  30  60 NE13      30.45R
KITTY HAWK     CLEAR     41  29  63 NE7G17    30.43R
MANTEO         CLEAR     41  29  63 NE16G22   30.44R

$$

NCZ045>047-081-094-103-104-170100-
CENTRAL COAST

CITY           SKY/WX    TMP DP  RH WIND       PRES   REMARKS
FRISCO         CLOUDY    44  36  73 NE13G24   30.40R
SWANQUARTER      N/A     43 N/A N/A NE10G18   30.39S

$$

NCZ095-097-098-100-101-170100-
SOUTHERN COAST

CITY           SKY/WX    TMP DP  RH WIND       PRES   REMARKS
BEAUFORT       CLEAR     45  32  60 NE10G21   30.40R
CEDAR ISLAND     N/A     46 N/A N/A N22G29    30.44R
JACKSONVILLE   CLEAR     50  29  44 NE14      30.39R
NEWPORT          N/A     46  32  57 NE7         N/A
PINEY ISLAND   CLEAR     47  29  49 NE16      30.41R
WILMINGTON     CLEAR     52  33  48 E8        30.37R


$$

NCZ011>013-027>030-043-044-078>080-089-090>093-098-170100-
COASTAL PLAIN

CITY           SKY/WX    TMP DP  RH WIND       PRES   REMARKS
AHOSKIE        CLEAR     46  29  52 NE3       30.43R
CLINTON        CLEAR     50  33  51 CALM      30.39R
ELIZABETHTOWN  CLEAR     49  32  51 CALM      30.37R
GOLDSBORO      CLEAR     49  29  44 NE7       30.38R
GREENVILLE     CLEAR     48  30  49 E9        30.41R
HAVELOCK       CLEAR     47  30  51 NE14      30.41R
KENANSVILLE    CLEAR     47  32  55 CALM      30.40R
KINSTON        CLEAR     50  28  43 NE6       30.40R
NEW BERN       CLEAR     49  31  49 NE9       30.42R
RICHLANDS      CLEAR     48  28  46 NE12      30.40R
ROANOKE RAPIDS NOT AVBL
ROCKY MOUNT      N/A    N/A N/A N/A MISG      30.40R
WASHINGTON     CLEAR     46  26  45 E8        30.42R
WHITEVILLE     NOT AVBL

$$

AMZ130-135-150-152-154-156-158-170-250-252-270-ANZ085-086-088-633-658-670-170100-
MARINE OBSERVATIONS

STATION/POSITION TIME  TEMP    WIND        PRES    WAVE   SWELL
                       AIR SEA DIR/SP/G            HT/PER HT/PER
                 (UTC) (F)     (DEG/KT/KT) (MB)    (FT/S) (FT/S)
CHESAPEAKE LIGHT 2300   42      50/ 21/ 23 1030.5
BUOY 44014       0000   45 65   20/ 21/ 27 1029.4    9/ 8   3/11
DUCK             0000   42 48   40/ 18/ 23 1029.7
2E DUCK          0000      47                N/A     7/ 7   2/11
OREGON INLET     0000   42 54   20/ 16/ 22 1030.2
BUOY 44095       0000      55                N/A    10/ 9   3/11
HATTERAS CG      0000   45 59   20/ 12/ 22 1029.7
DIAMOND BUOY     NOT AVBL
CAPE LOOKOUT     0000   47      50/ 23/ 26 1029.4
BEAUFORT LAB     0000   46 62   50/ 11/ 16 1028.6
30 SE NEW RIVER  0000   50 65   50/ 23/ 29 1028.4    8/ 8   3/11
5 SE WRIGHTSVILL 2300   53 60   80/ 17/ 21 1027.4
FRYING PAN BUOY  0000   52 65   70/ 23/ 29 1026.8    8/ 7   2/ 9
BUOY 41001       NOT AVBL
BUOY 41002       NOT AVBL
BUOY 41004       NOT AVBL

$$



USA.gov is the U.S. government's official web portal to all federal, state and local government web resources and services.